FW4111 Weather Reports


time (UTC)temp
F
wind
direction
speed
knots
gust
knots
rain 1hr
in
rain 24hr
in
rain mn
in
humidity
%
barometer
mb
20260504004502 55 260 8.7 12.2 0.00 0.00 0.00 55 1012.3
20260504003102 56 257 7.8 10.4 0.00 0.00 0.00 56 1012.1
20260504001602 56 240 7.8 11.3 0.00 0.00 0.00 56 1012.0
20260504000101 57 271 5.2 9.6 0.00 0.00 0.00 55 1011.8
20260503234538 58 255 4.3 8.7 0.00 0.00 0.00 52 1011.7
20260503233038 58 258 3.5 9.6 0.00 0.00 0.00 49 1011.5
20260503231536 59 286 4.3 13.9 0.00 0.00 0.00 46 1011.6
20260503230017 59 278 7.0 15.6 0.00 0.00 0.00 47 1011.5
20260503224512 59 276 10.4 16.5 0.00 0.00 0.00 47 1011.5
20260503223010 59 347 10.4 17.4 0.00 0.00 0.00 43 1011.2
20260503221506 59 295 8.7 20.9 0.00 0.00 0.00 50 1011.3
20260503220108 59 278 8.7 20.9 0.00 0.00 0.00 47 1011.2
20260503214549 58 270 11.3 20.9 0.00 0.00 0.00 45 1011.1
20260503213045 58 274 11.3 24.3 0.00 0.00 0.00 49 1011.1
20260503211558 58 319 9.6 19.1 0.00 0.00 0.00 45 1011.0
20260503210022 58 334 9.6 19.1 0.00 0.00 0.00 48 1010.9
20260503204520 58 285 11.3 21.7 0.00 0.00 0.00 46 1010.8
20260503203019 57 304 11.3 20.9 0.00 0.00 0.00 45 1010.8
20260503201517 57 293 11.3 19.1 0.00 0.00 0.00 47 1010.8
20260503200119 56 283 11.3 21.7 0.00 0.00 0.00 46 1010.9
20260503194604 56 357 11.3 24.3 0.00 0.00 0.00 48 1011.1
20260503193102 56 316 10.4 20.9 0.00 0.00 0.00 49 1011.1
20260503191555 56 295 12.2 20.0 0.00 0.00 0.00 51 1011.4
20260503190049 55 309 11.3 21.7 0.00 0.00 0.00 56 1011.5
20260503184537 55 248 8.7 19.1 0.00 0.00 0.00 51 1011.5
20260503183023 54 233 13.0 21.7 0.00 0.00 0.00 52 1011.6
20260503181520 54 311 11.3 21.7 0.00 0.00 0.00 53 1011.7
20260503180123 53 311 12.2 22.6 0.00 0.00 0.00 52 1011.8
20260503174601 53 277 12.2 22.6 0.00 0.00 0.00 54 1011.8
20260503173109 53 323 14.8 21.7 0.00 0.00 0.00 57 1012.0
20260503171556 53 332 9.6 23.5 0.00 0.00 0.00 52 1011.8
20260503150107 51 313 9.6 18.2 0.00 0.00 0.00 61 1012.2
20260503110106 0 0.0 0.0 0.00 0.00 0.00 1010.7
20260503081602 50 345 3.5 9.6 0.00 0.00 0.00 69 1008.9
20260503080107 50 303 3.5 11.3 0.00 0.00 0.00 69 1009.0
20260503071544 51 1 3.5 10.4 0.00 0.00 0.00 65 1009.1
20260503060118 52 356 8.7 13.9 0.00 0.00 0.00 62 1009.1
20260503054605 52 288 6.1 13.9 0.00 0.00 0.00 65 1009.2
20260503053057 53 302 5.2 13.0 0.00 0.00 0.00 67 1009.5
20260503051551 53 326 7.0 14.8 0.00 0.00 0.00 64 1009.4
20260503050048 53 322 5.2 10.4 0.00 0.00 0.00 68 1009.5
20260503044529 53 330 4.3 13.0 0.00 0.00 0.00 69 1009.7
20260503043027 53 342 7.8 13.0 0.00 0.00 0.00 68 1009.9
20260503041524 53 318 7.8 11.3 0.00 0.00 0.00 67 1010.1
20260503040006 53 13 5.2 13.9 0.00 0.00 0.00 70 1010.2
20260503034504 52 316 7.0 11.3 0.00 0.00 0.00 75 1010.0
20260503033003 52 304 4.3 9.6 0.00 0.00 0.00 80 1010.0
20260503031604 52 278 2.6 8.7 0.00 0.00 0.00 81 1010.2
20260503030127 52 302 3.5 7.8 0.00 0.00 0.00 81 1010.1
20260503024543 51 278 1.7 7.0 0.00 0.00 0.00 89 1010.0
20260503023037 51 280 2.6 6.1 0.00 0.00 0.00 89 1010.0
20260503021536 52 263 1.7 7.8 0.00 0.00 0.00 90 1010.3
20260503020010 52 269 3.5 7.0 0.00 0.00 0.00 91 1010.4
20260503014507 52 248 7.0 10.4 0.00 0.00 0.00 90 1010.1
20260503013004 52 251 6.1 9.6 0.00 0.00 0.00 90 1010.4
20260503011506 53 233 7.0 9.6 0.00 0.00 0.00 88 1010.3
20260503010110 52 242 6.1 8.7 0.00 0.00 0.00 86 1010.1